• In Spain
  • List of Countries
  • For 7 days
  • Water Temperature
  • Satellite Maps
  • Weather Map
  • Weather Widgets
  • user-avatar
    Login

    Hourly Weather Tarija

    Today, 19 September, Wednesday

    Time Temperature Precipitation Wind Pressure Humidity
    00:00 +19°C° 0 mm 2 mps 593 mmHg 49%
    01:00 +18°C° 0 mm 2 mps 593 mmHg 47%
    02:00 +18°C° 0 mm 2 mps 593 mmHg 56%
    03:00 +17°C° 0 mm 2 mps 593 mmHg 52%
    04:00 +17°C° 0 mm 3 mps 593 mmHg 48%
    05:00 +17°C° 0 mm 3 mps 593 mmHg 44%
    06:00 +18°C° 0 mm 3 mps 594 mmHg 36%
    07:00 +20°C° 0 mm 3 mps 595 mmHg 28%
    08:00 +22°C° 0 mm 3 mps 596 mmHg 19%
    09:00 +25°C° 0 mm 3 mps 597 mmHg 16%
    10:00 +26°C° 0 mm 3 mps 598 mmHg 13%
    11:00 +28°C° 0 mm 3 mps 598 mmHg 10%
    12:00 +28°C° 0 mm 4 mps 598 mmHg 13%
    13:00 +29°C° 0 mm 4 mps 598 mmHg 17%
    14:00 +29°C° 0 mm 5 mps 597 mmHg 20%
    15:00 +27°C° 0.7 mm 5 mps 596 mmHg 30%
    16:00 +26°C° 0.7 mm 5 mps 596 mmHg 41%
    17:00 +23°C° 0.7 mm 5 mps 595 mmHg 51%
    18:00 +22°C° 1.6 mm 4 mps 595 mmHg 61%
    19:00 +20°C° 1.6 mm 3 mps 596 mmHg 70%
    20:00 +19°C° 1.6 mm 2 mps 596 mmHg 80%
    21:00 +18°C° 0.4 mm 2 mps 596 mmHg 82%
    22:00 +18°C° 0.4 mm 2 mps 596 mmHg 84%
    23:00 +18°C° 0.4 mm 2 mps 597 mmHg 86%

    Tomorrow, 20 September, Thursday

    Time Temperature Precipitation Wind Pressure Humidity
    00:00 +17°C° 0 mm 2 mps 596 mmHg 87%
    01:00 +18°C° 0 mm 1 mps 596 mmHg 88%
    02:00 +18°C° 0 mm 1 mps 596 mmHg 88%
    03:00 +16°C° 0 mm 1 mps 596 mmHg 88%
    04:00 +16°C° 0 mm 1 mps 596 mmHg 88%
    05:00 +16°C° 0 mm 1 mps 596 mmHg 87%
    06:00 +16°C° 0 mm 1 mps 596 mmHg 84%
    07:00 +18°C° 0 mm 1 mps 597 mmHg 81%
    08:00 +17°C° 0 mm 2 mps 597 mmHg 78%
    09:00 +19°C° 0.1 mm 1 mps 597 mmHg 71%
    10:00 +20°C° 0.1 mm 1 mps 598 mmHg 65%
    11:00 +21°C° 0.1 mm 1 mps 598 mmHg 58%
    12:00 +21°C° 0 mm 2 mps 598 mmHg 57%
    13:00 +23°C° 0 mm 2 mps 597 mmHg 56%
    14:00 +22°C° 0 mm 3 mps 597 mmHg 55%
    15:00 +22°C° 0.2 mm 3 mps 596 mmHg 61%
    16:00 +21°C° 0.2 mm 3 mps 596 mmHg 67%
    17:00 +20°C° 0.2 mm 3 mps 595 mmHg 73%
    18:00 +19°C° 0.1 mm 3 mps 596 mmHg 77%
    19:00 +18°C° 0.1 mm 2 mps 596 mmHg 82%
    20:00 +18°C° 0.1 mm 2 mps 596 mmHg 86%
    21:00 +17°C° 0 mm 2 mps 597 mmHg 88%
    22:00 +18°C° 0 mm 1 mps 597 mmHg 89%
    23:00 +16°C° 0 mm 1 mps 597 mmHg 90%

    Day after tomorrow, 21 September, Friday

    Time Temperature Precipitation Wind Pressure Humidity
    00:00 +16°C° 0 mm 1 mps 597 mmHg 89%
    01:00 +16°C° 0 mm 1 mps 596 mmHg 87%
    02:00 +16°C° 0 mm 1 mps 596 mmHg 86%
    03:00 +16°C° 0 mm 1 mps 596 mmHg 86%
    04:00 +16°C° 0 mm 1 mps 595 mmHg 85%
    05:00 +15°C° 0 mm 1 mps 595 mmHg 85%
    06:00 +18°C° 0 mm 1 mps 596 mmHg 80%
    07:00 +19°C° 0 mm 1 mps 597 mmHg 74%
    08:00 +20°C° 0 mm 1 mps 598 mmHg 69%
    09:00 +22°C° 0 mm 1 mps 599 mmHg 61%
    10:00 +24°C° 0 mm 1 mps 599 mmHg 53%
    11:00 +25°C° 0 mm 1 mps 600 mmHg 45%
    12:00 +26°C° 0 mm 2 mps 599 mmHg 44%
    13:00 +27°C° 0 mm 3 mps 599 mmHg 43%
    14:00 +28°C° 0 mm 4 mps 598 mmHg 42%
    15:00 +26°C° 0.8 mm 4 mps 597 mmHg 50%
    16:00 +25°C° 0.8 mm 4 mps 597 mmHg 58%
    17:00 +23°C° 0.8 mm 4 mps 596 mmHg 65%
    18:00 +22°C° 0.2 mm 3 mps 596 mmHg 71%
    19:00 +21°C° 0.2 mm 3 mps 596 mmHg 77%
    20:00 +20°C° 0.2 mm 2 mps 597 mmHg 83%
    21:00 +20°C° 0.1 mm 2 mps 597 mmHg 84%
    22:00 +19°C° 0.1 mm 2 mps 597 mmHg 84%
    23:00 +19°C° 0.1 mm 2 mps 597 mmHg 85%

    22 September, Saturday

    Time Temperature Precipitation Wind Pressure Humidity
    00:00 +19°C° 0.1 mm 2 mps 597 mmHg 85%
    01:00 +18°C° 0.1 mm 2 mps 596 mmHg 85%
    02:00 +19°C° 0.1 mm 1 mps 596 mmHg 85%
    03:00 +18°C° 0 mm 2 mps 595 mmHg 85%
    04:00 +18°C° 0 mm 2 mps 595 mmHg 84%
    05:00 +17°C° 0 mm 2 mps 595 mmHg 84%
    06:00 +19°C° 0 mm 2 mps 596 mmHg 75%
    07:00 +20°C° 0 mm 2 mps 596 mmHg 67%
    08:00 +23°C° 0 mm 2 mps 597 mmHg 58%
    09:00 +25°C° 0 mm 2 mps 598 mmHg 48%
    10:00 +27°C° 0 mm 2 mps 598 mmHg 39%
    11:00 +29°C° 0 mm 2 mps 598 mmHg 30%
    12:00 +30°C° 0 mm 2 mps 598 mmHg 28%
    13:00 +30°C° 0 mm 3 mps 597 mmHg 27%
    14:00 +32°C° 0 mm 4 mps 597 mmHg 25%
    15:00 +30°C° 0.5 mm 4 mps 596 mmHg 31%
    16:00 +30°C° 0.5 mm 5 mps 595 mmHg 36%
    17:00 +29°C° 0.5 mm 5 mps 595 mmHg 41%
    18:00 +27°C° 3.7 mm 4 mps 595 mmHg 49%
    19:00 +25°C° 3.7 mm 4 mps 595 mmHg 56%
    20:00 +22°C° 3.7 mm 3 mps 595 mmHg 64%
    21:00 +23°C° 1 mm 2 mps 595 mmHg 64%
    22:00 +23°C° 1 mm 2 mps 596 mmHg 65%
    23:00 +22°C° 1 mm 1 mps 596 mmHg 65%

    23 September, Sunday

    Time Temperature Precipitation Wind Pressure Humidity
    00:00 +22°C° 0 mm 1 mps 595 mmHg 65%
    01:00 +22°C° 0 mm 1 mps 595 mmHg 65%
    02:00 +22°C° 0 mm 1 mps 595 mmHg 64%
    03:00 +21°C° 0 mm 1 mps 595 mmHg 64%
    04:00 +21°C° 0 mm 1 mps 594 mmHg 63%
    05:00 +20°C° 0 mm 1 mps 594 mmHg 63%
    06:00 +22°C° 0 mm 1 mps 595 mmHg 56%
    07:00 +23°C° 0 mm 1 mps 596 mmHg 49%
    08:00 +24°C° 0 mm 1 mps 597 mmHg 43%
    09:00 +26°C° 0 mm 1 mps 597 mmHg 38%
    10:00 +27°C° 0 mm 1 mps 598 mmHg 33%
    11:00 +29°C° 0 mm 2 mps 598 mmHg 29%
    12:00 +30°C° 0 mm 3 mps 598 mmHg 29%
    13:00 +30°C° 0 mm 4 mps 597 mmHg 29%
    14:00 +32°C° 0 mm 5 mps 597 mmHg 29%
    15:00 +30°C° 1.1 mm 5 mps 596 mmHg 34%
    16:00 +29°C° 1.1 mm 6 mps 596 mmHg 39%
    17:00 +27°C° 1.1 mm 6 mps 596 mmHg 44%
    18:00 +25°C° 4.6 mm 5 mps 596 mmHg 55%
    19:00 +22°C° 4.6 mm 4 mps 596 mmHg 65%
    20:00 +20°C° 4.6 mm 3 mps 596 mmHg 75%
    21:00 +20°C° 2 mm 3 mps 597 mmHg 76%
    22:00 +19°C° 2 mm 3 mps 597 mmHg 76%
    23:00 +19°C° 2 mm 3 mps 597 mmHg 77%

    24 September, Monday

    Time Temperature Precipitation Wind Pressure Humidity
    00:00 +19°C° 0.3 mm 2 mps 597 mmHg 73%
    01:00 +19°C° 0.3 mm 2 mps 596 mmHg 69%
    02:00 +19°C° 0.3 mm 2 mps 596 mmHg 65%
    03:00 +19°C° 0 mm 2 mps 596 mmHg 63%
    04:00 +19°C° 0 mm 2 mps 596 mmHg 62%
    05:00 +18°C° 0 mm 2 mps 596 mmHg 60%
    06:00 +19°C° 0 mm 2 mps 597 mmHg 56%
    07:00 +21°C° 0 mm 1 mps 598 mmHg 52%
    08:00 +22°C° 0 mm 1 mps 599 mmHg 48%
    09:00 +23°C° 0.2 mm 2 mps 599 mmHg 47%
    10:00 +24°C° 0.2 mm 2 mps 599 mmHg 46%
    11:00 +25°C° 0.2 mm 3 mps 599 mmHg 46%
    12:00 +24°C° 1.6 mm 3 mps 599 mmHg 50%
    13:00 +24°C° 1.6 mm 3 mps 598 mmHg 54%
    14:00 +23°C° 1.6 mm 4 mps 597 mmHg 58%
    15:00 +22°C° 2.6 mm 4 mps 597 mmHg 64%
    16:00 +21°C° 2.6 mm 4 mps 597 mmHg 70%
    17:00 +20°C° 2.6 mm 4 mps 596 mmHg 76%
    18:00 +20°C° 1.1 mm 3 mps 597 mmHg 80%
    19:00 +19°C° 1.1 mm 3 mps 597 mmHg 85%
    20:00 +18°C° 1.1 mm 2 mps 597 mmHg 90%
    21:00 +17°C° 2 mm 2 mps 597 mmHg 90%
    22:00 +17°C° 2 mm 2 mps 597 mmHg 91%
    23:00 +18°C° 2 mm 1 mps 597 mmHg 92%
    Show more